DW8873 Weather Reports


Display with metric or nautical units.
time (UTC)temp
F
wind
direction
speed
MPH
gust
MPH
rain 1hr
in
rain 24hr
in
rain mn
in
humidity
%
barometer
mb
20260902235151 80 233 4.0 10.0 0.00 0.00 0.00 40 1009.0
20260902234149 80 251 2.0 8.0 0.00 0.00 0.00 41 1008.6
20260902233147 80 238 2.0 8.0 0.00 0.00 0.00 40 1008.6
20260902232146 80 236 1.0 8.0 0.00 0.00 0.00 41 1008.6
20260902231144 81 297 2.0 7.0 0.00 0.00 0.00 40 1008.6
20260902230143 80 271 2.0 5.0 0.00 0.00 0.00 41 1008.6
20260902225141 80 307 2.0 8.0 0.00 0.00 0.00 42 1008.6
20260902224140 79 334 2.0 8.0 0.00 0.00 0.00 44 1008.3
20260902223138 77 74 1.0 8.0 0.00 0.00 0.00 45 1008.3
20260902222137 76 328 3.0 10.0 0.00 0.00 0.00 46 1008.3
20260902221135 75 346 3.0 11.0 0.00 0.00 0.00 49 1008.3
20260902220134 74 342 2.0 5.0 0.00 0.00 0.00 50 1008.6
20260902215133 74 346 1.0 4.0 0.00 0.00 0.00 54 1008.6
20260902214131 72 343 1.0 1.0 0.00 0.00 0.00 57 1008.6
20260902213129 71 342 0.0 1.0 0.00 0.00 0.00 58 1008.6
20260902212128 69 342 0.0 1.0 0.00 0.00 0.00 59 1008.6
20260902211126 69 343 0.0 2.0 0.00 0.00 0.00 59 1008.6
20260902210125 68 343 0.0 5.0 0.00 0.00 0.00 58 1008.3
20260902205123 68 343 1.0 5.0 0.00 0.00 0.00 58 1008.3
20260902204020 68 337 1.0 5.0 0.00 0.00 0.00 58 1008.3
20260902203018 68 337 1.0 7.0 0.00 0.00 0.00 59 1008.3
20260902202017 68 337 2.0 7.0 0.00 0.00 0.00 59 1008.6
20260902201015 67 343 3.0 7.0 0.00 0.00 0.00 59 1008.6
20260902195912 68 335 1.0 7.0 0.00 0.00 0.00 59 1008.6
20260902194910 68 350 3.0 11.0 0.00 0.00 0.00 59 1008.6
20260902193909 68 350 5.0 11.0 0.00 0.00 0.00 59 1008.3
20260902192908 68 335 4.0 7.0 0.00 0.00 0.00 59 1009.0
20260902191906 68 340 2.0 6.0 0.00 0.00 0.00 59 1009.0
20260902190904 68 353 2.0 3.0 0.00 0.00 0.00 59 1009.6
20260902185903 68 354 1.0 4.0 0.00 0.00 0.00 59 1009.6
20260902184901 68 354 1.0 4.0 0.00 0.00 0.00 59 1009.6
20260902183900 69 341 2.0 4.0 0.00 0.00 0.00 59 1009.6
20260902182859 69 255 0.0 4.0 0.00 0.00 0.00 59 1010.3
20260902181858 69 255 0.0 4.0 0.00 0.00 0.00 58 1010.3
20260902180856 69 300 1.0 2.0 0.00 0.00 0.00 56 1009.6
20260902175855 69 336 0.0 3.0 0.00 0.00 0.00 56 1009.3
20260902174853 69 336 0.0 3.0 0.00 0.00 0.00 56 1009.3
20260902173851 69 335 2.0 7.0 0.00 0.00 0.00 56 1009.3
20260902172849 69 344 1.0 7.0 0.00 0.00 0.00 57 1009.6
20260902171816 69 337 2.0 6.0 0.00 0.00 0.00 57 1009.6
20260902170814 69 354 1.0 6.0 0.00 0.00 0.00 58 1010.0
20260902165813 69 346 2.0 4.0 0.00 0.00 0.00 58 1010.0
20260902164812 69 309 1.0 4.0 0.00 0.00 0.00 58 1010.3
20260902163811 69 353 1.0 3.0 0.00 0.00 0.00 58 1010.3
20260902162809 69 340 1.0 3.0 0.00 0.00 0.00 57 1010.3
20260902161808 69 357 2.0 4.0 0.00 0.00 0.00 57 1010.7
20260902160806 69 340 1.0 5.0 0.00 0.00 0.00 58 1010.7
20260902155805 69 333 1.0 9.0 0.00 0.00 0.00 58 1011.0
20260902154803 69 334 2.0 7.0 0.00 0.00 0.00 57 1011.0
20260902153801 69 356 2.0 7.0 0.00 0.00 0.00 58 1011.4
20260902152800 68 358 1.0 6.0 0.00 0.00 0.00 58 1011.0
20260902151758 67 329 2.0 3.0 0.00 0.00 0.00 59 1011.3
20260902150757 66 330 2.0 3.0 0.00 0.00 0.00 59 1011.3
20260902145653 66 323 1.0 3.0 0.00 0.00 0.00 59 1011.7
20260902144652 66 23 1.0 2.0 0.00 0.00 0.00 59 1011.7
20260902143650 66 295 0.0 1.0 0.00 0.00 0.00 59 1011.7
20260902142649 66 295 0.0 1.0 0.00 0.00 0.00 59 1012.0
20260902141617 66 295 0.0 2.0 0.00 0.00 0.00 59 1012.0
20260902140544 65 295 1.0 2.0 0.00 0.00 0.00 59 1012.0
20260902135543 65 295 0.0 1.0 0.00 0.00 0.00 59 1012.0
20260902134541 65 295 0.0 0.0 0.00 0.00 0.00 59 1012.3
20260902133539 65 295 0.0 0.0 0.00 0.00 0.00 59 1012.3
20260902132538 65 295 0.0 1.0 0.00 0.00 0.00 59 1012.3
20260902131536 65 295 0.0 1.0 0.00 0.00 0.00 59 1012.7
20260902130534 65 295 0.0 1.0 0.00 0.00 0.00 59 1012.7
20260902125533 66 295 0.0 1.0 0.00 0.00 0.00 59 1012.7
20260902124531 65 295 1.0 1.0 0.00 0.00 0.00 59 1012.7
20260902123529 65 295 0.0 1.0 0.00 0.00 0.00 59 1013.0
20260902122528 66 295 0.0 1.0 0.00 0.00 0.00 59 1013.0
20260902121526 66 295 0.0 1.0 0.00 0.00 0.00 59 1013.0
20260902120525 66 295 0.0 2.0 0.00 0.00 0.00 59 1013.0
20260902115523 66 295 1.0 2.0 0.00 0.00 0.00 59 1013.3
20260902114522 66 295 0.0 1.0 0.00 0.00 0.00 59 1013.3
20260902113417 68 295 0.0 2.0 0.00 0.00 0.00 59 1013.3
20260902112345 69 295 1.0 2.0 0.00 0.00 0.00 56 1013.3
20260902111343 70 295 0.0 1.0 0.00 0.00 0.00 52 1013.3
20260902110342 70 295 0.0 1.0 0.00 0.00 0.00 51 1013.3
20260902105341 71 295 0.0 2.0 0.00 0.00 0.00 50 1013.3
20260902104339 70 295 1.0 2.0 0.00 0.00 0.00 50 1013.3
20260902103336 70 295 0.0 1.0 0.00 0.00 0.00 50 1013.3
20260902102334 71 295 0.0 2.0 0.00 0.00 0.00 49 1013.3
20260902101333 71 295 0.0 2.0 0.00 0.00 0.00 48 1013.3
20260902100331 71 295 1.0 2.0 0.00 0.00 0.00 48 1013.3
20260902095329 71 295 0.0 2.0 0.00 0.00 0.00 48 1013.0
20260902094328 72 295 0.0 1.0 0.00 0.00 0.00 48 1013.0
20260902093326 72 295 0.0 1.0 0.00 0.00 0.00 46 1013.0
20260902092325 72 295 0.0 2.0 0.00 0.00 0.00 45 1013.0
20260902091252 72 295 0.0 2.0 0.00 0.00 0.00 43 1013.0
20260902090250 73 90 0.0 1.0 0.00 0.00 0.00 43 1012.6
20260902085146 73 90 0.0 1.0 0.00 0.00 0.00 41 1012.6
20260902084145 74 90 0.0 2.0 0.00 0.00 0.00 41 1012.6
20260902083144 75 72 1.0 1.0 0.00 0.00 0.00 39 1012.3
20260902082040 75 72 0.0 1.0 0.00 0.00 0.00 37 1012.3
20260902081038 76 72 0.0 1.0 0.00 0.00 0.00 36 1012.3
20260902080005 76 72 0.0 3.0 0.00 0.00 0.00 35 1012.3
20260902075004 77 73 2.0 3.0 0.00 0.00 0.00 35 1012.0
20260902074003 77 161 0.0 4.0 0.00 0.00 0.00 34 1012.0
20260902073002 78 261 2.0 4.0 0.00 0.00 0.00 35 1012.0
20260902071827 78 224 1.0 4.0 0.00 0.00 0.00 35 1011.6
20260902070754 79 255 2.0 4.0 0.00 0.00 0.00 35 1011.6
20260902065753 79 264 1.0 3.0 0.00 0.00 0.00 35 1011.3
20260902064752 79 226 1.0 3.0 0.00 0.00 0.00 36 1011.6
20260902063750 79 251 0.0 2.0 0.00 0.00 0.00 36 1011.3
20260902062749 79 238 1.0 3.0 0.00 0.00 0.00 37 1011.3
20260902061748 79 238 1.0 3.0 0.00 0.00 0.00 35 1011.3
20260902060746 80 230 1.0 3.0 0.00 0.00 0.00 35 1011.3
20260902055745 80 260 1.0 3.0 0.00 0.00 0.00 34 1011.3
20260902054744 80 258 1.0 2.0 0.00 0.00 0.00 36 1011.3
20260902053742 80 258 0.0 2.0 0.00 0.00 0.00 36 1011.7
20260902052741 80 262 1.0 3.0 0.00 0.00 0.00 35 1011.7
20260902051739 80 249 1.0 3.0 0.00 0.00 0.00 35 1011.7
20260902050706 80 144 1.0 6.0 0.00 0.00 0.00 35 1011.7
20260902045705 80 273 2.0 7.0 0.00 0.00 0.00 34 1011.7
20260902044632 80 252 1.0 5.0 0.00 0.00 0.00 35 1011.3
20260902043631 81 266 1.0 7.0 0.00 0.00 0.00 35 1011.3
20260902042630 81 260 3.0 10.0 0.00 0.00 0.00 35 1011.3
20260902041628 82 340 2.0 11.0 0.00 0.00 0.00 34 1011.3
20260902040626 83 259 3.0 11.0 0.00 0.00 0.00 32 1011.3
20260902035625 84 221 2.0 9.0 0.00 0.00 0.00 32 1011.3
20260902034623 84 307 1.0 5.0 0.00 0.00 0.00 33 1011.3
20260902033551 83 77 2.0 5.0 0.00 0.00 0.00 34 1011.7
20260902032518 81 99 2.0 5.0 0.00 0.00 0.00 37 1011.7
20260902031517 82 118 1.0 7.0 0.00 0.00 0.00 39 1012.0
20260902030445 82 72 1.0 7.0 0.00 0.00 0.00 39 1012.4
20260902025411 83 197 1.0 8.0 0.00 0.00 0.00 38 1012.4
20260902024410 83 6 2.0 8.0 0.00 0.00 0.00 38 1012.7
20260902023408 83 250 3.0 7.0 0.00 0.00 0.00 36 1013.0
20260902022336 83 231 2.0 10.0 0.00 0.00 0.00 38 1013.0
20260902021334 83 265 4.0 10.0 0.00 0.00 0.00 36 1013.0
20260902020333 82 1 2.0 9.0 0.00 0.00 0.00 38 1013.4
20260902015331 83 204 2.0 8.0 0.00 0.00 0.00 38 1013.4
20260902014330 82 301 3.0 8.0 0.00 0.00 0.00 38 1013.7
20260902013329 81 14 2.0 7.0 0.00 0.00 0.00 40 1013.7
20260902012328 81 333 2.0 7.0 0.00 0.00 0.00 40 1014.0
20260902011255 80 3 2.0 8.0 0.00 0.00 0.00 41 1014.4
20260902010254 80 23 1.0 8.0 0.00 0.00 0.00 42 1014.4
20260902005252 79 318 1.0 12.0 0.00 0.00 0.00 42 1014.4
20260902004251 79 4 4.0 12.0 0.00 0.00 0.00 42 1014.7
20260902003250 79 14 2.0 9.0 0.00 0.00 0.00 43 1014.7
20260902002249 78 329 2.0 8.0 0.00 0.00 0.00 44 1015.0
20260902001248 77 5 2.0 9.0 0.00 0.00 0.00 45 1015.4
20260902000215 76 352 3.0 9.0 0.00 0.00 0.00 46 1015.4